[[{"header":{"parameterUnit":"m.s-1","parameterCategory":1,"la1":30.2991,"la2":30.254,"lo1":-89.0895,"lo2":-89.0444,"dy":0.0017,"dx":0.0017,"nx":28,"ny":28,"refTime":"2025-09-17T21:00:00:Z","depth":0,"parameterNumber":2,"parameterNumberName":"U-component_of_WINDS"},"data":[0,0,0,0,0,0,0,0,0,0,0,0,0,0,0,0,0,0,0,0,0,0,0,0,0,0,0,0,0,0,0,0,0,0,0,0,0,0,0,0,0,0,0,0,0,0,0,0,0,0,0,0,0,0,0,0,0,0,-0.2852,-0.2851,0,-0.2792,-0.2791,-0.279,-0.2731,-0.273,-0.273,-0.2729,-0.2668,-0.2667,-0.2666,0,0,0,0,0,0,0,0,0,0,0,0,0,-0.2917,-0.2916,-0.2852,-0.2851,-0.285,-0.2792,-0.2791,-0.279,-0.2731,-0.273,-0.273,-0.2729,-0.2668,-0.2667,-0.2666,0,0,0,0,0,0,0,0,0,0,0,0,0,-0.2876,-0.2916,-0.2852,-0.2814,-0.281,-0.2792,-0.2791,-0.279,-0.2732,-0.273,-0.2729,-0.2728,-0.2668,-0.2667,-0.2666,-0.268,0,0,-0.2661,-0.2661,0,0,0,0,0,0,0,0,-0.2878,-0.2874,-0.282,-0.2817,-0.2812,-0.2768,-0.2791,-0.2753,-0.2732,-0.2761,-0.2729,-0.2728,-0.2702,-0.2698,-0.2689,-0.2677,-0.2675,-0.2661,-0.266,-0.266,-0.2659,0,0,0,0,0,0,0,-0.2881,-0.2876,-0.2828,-0.282,-0.2815,-0.28,-0.2793,-0.2784,-0.2739,-0.2759,-0.2754,-0.2748,-0.2699,-0.269,-0.2687,-0.2674,-0.2661,-0.266,-0.2659,-0.2659,-0.2672,-0.2674,0,0,0,0,0,0,-0.289,-0.2879,-0.283,-0.2826,-0.2843,-0.28,-0.2792,-0.2783,-0.2739,-0.2731,-0.2749,-0.2745,-0.2693,-0.2689,-0.2685,-0.27,-0.266,-0.2659,-0.2658,-0.2671,-0.2673,-0.2674,0,0,0,0,0,0,-0.2892,-0.2886,-0.2832,-0.2851,-0.2843,-0.28,-0.2791,-0.2783,-0.2774,-0.2731,-0.2723,-0.2748,-0.2692,-0.2687,-0.2682,-0.2697,-0.2658,-0.2657,-0.267,-0.2672,-0.2673,-0.273,0,0,0,0,0,0,-0.2894,-0.2887,-0.2892,-0.2852,-0.2843,-0.2831,-0.2791,-0.2782,-0.2771,-0.2766,-0.2728,-0.2721,-0.2691,-0.2684,-0.2681,-0.2694,-0.2656,-0.2668,-0.2671,-0.2673,-0.2727,-0.2734,-0.274,0,0,0,0,0,-0.2896,-0.291,-0.2893,-0.2887,-0.2848,-0.2832,-0.2826,-0.2791,-0.2773,-0.2778,-0.2751,-0.2722,-0.2696,-0.2684,-0.268,-0.2693,-0.2667,-0.267,-0.2673,-0.2724,-0.2732,-0.2739,0,0,0,0,0,0,-0.2953,-0.2904,-0.2884,-0.2885,-0.2863,-0.2822,-0.2827,-0.2801,-0.2784,-0.278,-0.2737,-0.2729,-0.273,-0.2711,-0.2699,-0.2706,-0.2678,-0.2679,-0.2718,-0.2726,-0.2732,-0.2737,-0.2654,0,0,0,0,0,-0.2966,-0.2957,-0.2914,-0.292,-0.291,-0.2871,-0.2862,-0.2837,-0.2812,-0.2803,-0.2775,-0.2753,-0.2739,-0.2731,-0.2716,-0.2723,-0.2715,-0.273,-0.2737,-0.2742,-0.2745,-0.2748,-0.2755,-0.2683,-0.2683,-0.2683,0,0,-0.2993,-0.2965,-0.2961,-0.2931,-0.291,-0.2903,-0.2863,-0.2856,-0.285,-0.2801,-0.2796,-0.2775,-0.2747,-0.2749,-0.2748,-0.2733,-0.2763,-0.2746,-0.275,-0.275,-0.2752,-0.2759,-0.2765,-0.2685,-0.2684,-0.2684,0,0,-0.3037,-0.3014,-0.3017,-0.2997,-0.2967,-0.2941,-0.2942,-0.2904,-0.2889,-0.2882,-0.2846,-0.2838,-0.2816,-0.2798,-0.2785,-0.2823,-0.2797,-0.2819,-0.2853,-0.2857,-0.2863,-0.2868,-0.2883,-0.2888,-0.2822,-0.2822,-0.2822,0,-0.3074,-0.306,-0.3021,-0.3017,-0.3005,-0.2961,-0.2963,-0.2946,-0.2913,-0.2906,-0.289,-0.2861,-0.2839,-0.2836,-0.2846,-0.2837,-0.2837,-0.2824,-0.2865,-0.287,-0.2874,-0.2887,-0.2893,-0.2825,-0.2825,-0.2824,-0.2824,0,-0.3107,-0.3098,-0.3104,-0.3073,-0.3061,-0.3061,-0.3023,-0.3016,-0.2992,-0.2967,-0.2962,-0.2934,-0.2913,-0.291,-0.2887,-0.2905,-0.2896,-0.2873,-0.2844,-0.2884,-0.2897,-0.2901,-0.2829,-0.2828,-0.2827,-0.2827,0,0,-0.3186,-0.3134,-0.3137,-0.3123,-0.3087,-0.308,-0.3077,-0.3057,-0.3052,-0.303,-0.3028,-0.301,-0.2989,-0.2975,-0.2949,-0.2952,-0.2986,-0.2928,-0.2927,-0.2941,-0.3005,-0.3024,-0.3031,-0.2967,-0.2968,-0.2969,-0.3008,0,-0.3226,-0.3218,-0.3184,-0.3187,-0.3179,-0.3137,-0.3134,-0.3112,-0.3089,-0.308,-0.3054,-0.3043,-0.3014,-0.3006,-0.3007,-0.2981,-0.2998,-0.2978,-0.2965,-0.2966,-0.2975,-0.3037,-0.3057,-0.3095,-0.3012,-0.3013,-0.3014,0,-0.327,-0.3252,-0.3255,-0.3219,-0.3214,-0.3213,-0.3192,-0.3183,-0.3157,-0.314,-0.3125,-0.3096,-0.3091,-0.3064,-0.3057,-0.3044,-0.3037,-0.3024,-0.3024,-0.3023,-0.2993,-0.3039,-0.3106,-0.3113,-0.3021,-0.302,-0.302,0,-0.333,-0.3306,-0.3304,-0.3293,-0.3251,-0.3252,-0.3234,-0.3207,-0.3198,-0.3179,-0.3173,-0.3154,-0.3144,-0.3131,-0.3098,-0.308,-0.3096,-0.3065,-0.3083,-0.3084,-0.3089,-0.3089,-0.3158,-0.3082,-0.3082,-0.3082,-0.3082,0,-0.3378,-0.3382,-0.3331,-0.333,-0.3333,-0.3293,-0.3297,-0.3276,-0.3252,-0.3247,-0.3209,-0.3205,-0.316,-0.3152,-0.3125,-0.3125,-0.312,-0.3108,-0.3101,-0.3112,-0.3114,-0.3108,-0.3105,-0.3083,-0.3083,-0.3083,-0.3082,0,-0.3446,-0.3412,-0.3408,-0.3368,-0.3358,-0.3363,-0.3329,-0.3327,-0.3302,-0.3296,-0.3292,-0.3253,-0.3241,-0.3206,-0.3184,-0.3167,-0.3174,-0.3161,-0.3183,-0.3179,-0.32,-0.3199,-0.3268,-0.3276,-0.3194,-0.3195,-0.3195,0,-0.348,-0.3482,-0.3443,-0.3436,-0.3421,-0.3411,-0.3401,-0.3362,-0.3353,-0.3324,-0.3326,-0.331,-0.3296,-0.3279,-0.3248,-0.3232,-0.3219,-0.3244,-0.3216,-0.3228,-0.3221,-0.3222,-0.3223,-0.3251,-0.3252,-0.3253,-0.3253,0,-0.3545,-0.3528,-0.3514,-0.3496,-0.3485,-0.3468,-0.3449,-0.3446,-0.3402,-0.3395,-0.3382,-0.3371,-0.3349,-0.3335,-0.3314,-0.3296,-0.3268,-0.3262,-0.3266,-0.3278,-0.3292,-0.3286,-0.3202,-0.3261,-0.326,-0.326,-0.3259,-0.3259,-0.3598,-0.3598,-0.357,-0.3557,-0.3539,-0.3522,-0.3519,-0.3493,-0.3481,-0.3461,-0.3438,-0.3428,-0.3402,-0.3371,-0.3356,-0.3348,-0.3333,-0.3337,-0.3339,-0.3341,-0.3347,-0.3292,-0.3343,-0.3343,-0.3343,-0.3343,-0.3342,0,-0.3662,-0.3642,-0.363,-0.3605,-0.3595,-0.3568,-0.3546,-0.354,-0.3531,-0.351,-0.3497,-0.3482,-0.3468,-0.3437,-0.342,-0.342,-0.3406,-0.3417,-0.3417,-0.3414,-0.336,-0.336,-0.3428,-0.3428,-0.3428,-0.3428,-0.3428,-0.3428,-0.3694,-0.3693,-0.3673,-0.3662,-0.3642,-0.3632,-0.3622,-0.3607,-0.3589,-0.3575,-0.3563,-0.3543,-0.3517,-0.3498,-0.3485,-0.3476,-0.3472,-0.3487,-0.3474,-0.3425,-0.3417,-0.341,-0.3409,-0.3486,-0.3486,-0.3528,-0.3529,-0.3529]},{"header":{"parameterUnit":"m.s-1","parameterCategory":1,"la1":30.2991,"la2":30.254,"lo1":-89.0895,"lo2":-89.0444,"dy":0.0017,"dx":0.0017,"nx":28,"ny":28,"refTime":"2025-09-17T21:00:00:Z","depth":0,"parameterNumber":3,"parameterNumberName":"V-component_of_WINDS"},"data":[0,0,0,0,0,0,0,0,0,0,0,0,0,0,0,0,0,0,0,0,0,0,0,0,0,0,0,0,0,0,0,0,0,0,0,0,0,0,0,0,0,0,0,0,0,0,0,0,0,0,0,0,0,0,0,0,0,0,2.8996,2.8996,0,2.8999,2.8999,2.8999,2.9001,2.9001,2.9001,2.9001,2.9003,2.9003,2.9004,0,0,0,0,0,0,0,0,0,0,0,0,0,2.899,2.899,2.8996,2.8996,2.8996,2.8999,2.8999,2.8999,2.9001,2.9001,2.9001,2.9001,2.9003,2.9003,2.9004,0,0,0,0,0,0,0,0,0,0,0,0,0,2.8993,2.899,2.8996,2.8997,2.8997,2.8999,2.8999,2.8999,2.9001,2.9001,2.9001,2.9001,2.9003,2.9003,2.9004,2.9004,0,0,2.9004,2.9004,0,0,0,0,0,0,0,0,2.8993,2.8993,2.8997,2.8997,2.8997,2.9,2.8998,2.9001,2.9001,2.9,2.9001,2.9001,2.9002,2.9002,2.9003,2.9004,2.9004,2.9004,2.9004,2.9004,2.9004,0,0,0,0,0,0,0,2.8992,2.8993,2.8997,2.8997,2.8997,2.8997,2.8998,2.8998,2.9001,2.9,2.9,2.9,2.9002,2.9003,2.9003,2.9004,2.9004,2.9004,2.9004,2.9004,2.9005,2.9005,0,0,0,0,0,0,2.8992,2.8993,2.8997,2.8997,2.8995,2.8998,2.8998,2.8999,2.9001,2.9001,2.9,2.9001,2.9003,2.9003,2.9003,2.9003,2.9004,2.9004,2.9004,2.9005,2.9005,2.9005,0,0,0,0,0,0,2.8992,2.8993,2.8997,2.8995,2.8996,2.8998,2.8999,2.8999,2.9,2.9001,2.9001,2.9001,2.9003,2.9003,2.9004,2.9003,2.9004,2.9004,2.9005,2.9005,2.9005,2.9004,0,0,0,0,0,0,2.8992,2.8992,2.8993,2.8995,2.8996,2.8998,2.8999,2.8999,2.9,2.9,2.9001,2.9002,2.9003,2.9003,2.9004,2.9004,2.9004,2.9005,2.9005,2.9005,2.9004,2.9004,2.9004,0,0,0,0,0,2.8992,2.8992,2.8993,2.8993,2.8996,2.8998,2.8998,2.8999,2.9,2.9,2.9001,2.9002,2.9004,2.9004,2.9004,2.9004,2.9005,2.9005,2.9005,2.9004,2.9004,2.9004,0,0,0,0,0,0,2.8989,2.8992,2.8993,2.8994,2.8996,2.8998,2.8998,2.8999,2.9,2.9,2.9002,2.9002,2.9003,2.9003,2.9003,2.9004,2.9004,2.9004,2.9003,2.9003,2.9003,2.9003,2.9004,0,0,0,0,0,2.8988,2.899,2.8992,2.8993,2.8994,2.8996,2.8996,2.8998,2.8999,2.9,2.9001,2.9002,2.9003,2.9003,2.9004,2.9004,2.9005,2.9004,2.9004,2.9004,2.9004,2.9004,2.9004,2.9005,2.9005,2.9005,0,0,2.8987,2.8989,2.899,2.8992,2.8994,2.8995,2.8996,2.8997,2.8998,2.8999,2.9,2.9001,2.9003,2.9003,2.9004,2.9004,2.9004,2.9004,2.9004,2.9004,2.9004,2.9004,2.9004,2.9005,2.9005,2.9005,0,0,2.8986,2.8987,2.8988,2.899,2.8992,2.8993,2.8994,2.8996,2.8997,2.8998,2.8999,2.9,2.9001,2.9002,2.9003,2.9003,2.9003,2.9003,2.9002,2.9003,2.9003,2.9003,2.9003,2.9002,2.9003,2.9003,2.9003,0,2.8984,2.8986,2.8988,2.8989,2.8991,2.8993,2.8994,2.8995,2.8997,2.8998,2.8998,2.9,2.9001,2.9002,2.9002,2.9003,2.9003,2.9003,2.9003,2.9003,2.9003,2.9002,2.9002,2.9003,2.9003,2.9003,2.9003,0,2.8983,2.8985,2.8985,2.8988,2.8989,2.899,2.8993,2.8993,2.8995,2.8996,2.8997,2.8999,2.9,2.9,2.9001,2.9002,2.9002,2.9002,2.9003,2.9002,2.9002,2.9002,2.9003,2.9003,2.9003,2.9003,0,0,2.8979,2.8984,2.8984,2.8986,2.8989,2.899,2.8991,2.8993,2.8994,2.8995,2.8996,2.8998,2.8998,2.8999,2.9,2.9001,2.9001,2.9001,2.9001,2.9001,2.9001,2.9,2.9,2.9001,2.9001,2.9001,2.9001,0,2.8978,2.8981,2.8983,2.8985,2.8986,2.8989,2.899,2.8992,2.8993,2.8994,2.8996,2.8997,2.8998,2.8999,2.8999,2.9,2.9001,2.9001,2.9002,2.9002,2.9001,2.9,2.9,2.8999,2.9001,2.9001,2.9001,0,2.8977,2.8979,2.8981,2.8985,2.8985,2.8986,2.8988,2.899,2.8992,2.8993,2.8994,2.8996,2.8997,2.8998,2.8999,2.8999,2.9,2.9001,2.9001,2.9,2.9001,2.9,2.8999,2.8999,2.9001,2.9001,2.9001,0,2.8973,2.8977,2.8979,2.898,2.8984,2.8985,2.8986,2.8989,2.899,2.8992,2.8993,2.8994,2.8995,2.8996,2.8998,2.8999,2.9,2.9,2.9,2.9,2.9,2.9,2.8999,2.9001,2.9001,2.9001,2.9001,0,2.8972,2.8973,2.8978,2.8978,2.898,2.8983,2.8984,2.8986,2.8988,2.8989,2.8991,2.8992,2.8995,2.8996,2.8998,2.8999,2.8999,2.9,2.9,2.9,2.8999,2.9,2.9,2.9001,2.9001,2.9001,2.9001,0,2.8968,2.8971,2.8973,2.8978,2.8979,2.8979,2.8983,2.8984,2.8986,2.8987,2.8988,2.8991,2.8993,2.8995,2.8997,2.8998,2.8999,2.8999,2.8998,2.8998,2.8998,2.8998,2.8997,2.8997,2.8999,2.8999,2.8999,0,2.8966,2.8967,2.8972,2.8973,2.8975,2.8977,2.8979,2.8982,2.8983,2.8986,2.8987,2.8989,2.8991,2.8993,2.8996,2.8997,2.8998,2.8997,2.8998,2.8998,2.8998,2.8998,2.8998,2.8997,2.8997,2.8997,2.8997,0,2.8963,2.8965,2.8967,2.8971,2.8973,2.8975,2.8977,2.8978,2.8982,2.8983,2.8986,2.8987,2.899,2.8992,2.8994,2.8995,2.8997,2.8997,2.8997,2.8996,2.8995,2.8996,2.8998,2.8997,2.8997,2.8997,2.8997,2.8997,2.896,2.8962,2.8965,2.8968,2.8971,2.8973,2.8974,2.8977,2.8979,2.8982,2.8984,2.8986,2.8988,2.8992,2.8993,2.8995,2.8995,2.8995,2.8995,2.8995,2.8995,2.8996,2.8995,2.8995,2.8995,2.8995,2.8995,0,2.8957,2.896,2.8963,2.8967,2.8969,2.8971,2.8974,2.8975,2.8978,2.898,2.8982,2.8985,2.8987,2.899,2.8992,2.8993,2.8993,2.8993,2.8993,2.8993,2.8994,2.8994,2.8993,2.8993,2.8993,2.8993,2.8993,2.8993,2.8956,2.8958,2.8961,2.8964,2.8967,2.897,2.8971,2.8974,2.8976,2.8979,2.8981,2.8983,2.8986,2.8988,2.899,2.8991,2.8992,2.8991,2.8992,2.8993,2.8993,2.8993,2.8993,2.8991,2.8991,2.8991,2.8991,2.8991]}]]